Theta_e
308 308 308 308 308 309 308 308 308 308 309 308 309 308 308 308 308 308 307 308 307 308 308 308 308 308 309 308 308 308 309 311 313 314 314 315 314 314 315 314 315 314 314 315 312 313 313 312 313 313 316 315 315 316 314 320 323 322 328 325 322 328 328 328 328 324 320 324 326 320 316 316 318 319 314 311 314 316 315 317 318 315 313 313 309 307 308 309
308 309 309 309 309 309 309 309 309 309 309 309 309 308 309 308 308 308 308 308 308 308 308 308 309 309 309 309 309 309 312 313 314 315 315 316 316 316 316 314 315 315 315 314 313 312 314 315 311 314 319 316 315 316 316 319 320 326 328 321 323 329 327 325 327 325 319 318 322 320 317 314 316 317 312 314 318 316 316 317 317 317 317 313 307 306 308 309
309 309 309 309 309 309 309 309 309 309 309 309 309 309 309 309 309 309 308 309 308 308 308 308 309 309 309 310 310 311 314 314 314 316 317 316 316 316 317 315 315 315 315 314 313 312 314 315 311 317 321 316 318 319 320 319 319 327 325 322 330 328 323 322 323 323 319 317 319 320 316 314 317 315 312 315 317 316 316 316 316 318 320 317 315 307 305 307
309 310 310 310 310 310 310 310 310 310 310 310 310 310 310 310 310 309 309 309 309 309 309 309 309 309 309 309 311 312 313 313 314 315 317 316 315 316 316 316 315 315 316 314 313 313 313 312 311 318 319 317 321 320 322 322 320 324 321 325 333 323 320 322 322 322 320 315 315 317 315 315 316 313 313 315 315 316 316 316 315 316 318 317 323 312 303 304
310 310 310 310 310 310 311 310 311 310 311 310 311 310 310 310 310 310 311 310 310 309 309 309 309 309 309 310 311 312 314 315 316 316 316 316 315 316 316 316 316 316 315 313 313 313 312 311 312 319 318 318 320 319 325 325 319 321 320 323 327 319 318 321 322 322 319 315 316 316 315 316 314 312 314 315 315 316 316 318 317 316 317 315 318 313 304 304
311 311 311 311 311 311 311 311 311 311 311 311 310 311 311 311 311 311 311 311 311 310 310 310 310 309 309 310 312 313 314 315 314 315 316 316 315 316 317 316 316 316 315 313 313 312 314 313 313 318 318 316 319 319 323 321 316 320 322 321 324 320 318 320 321 321 319 315 316 317 315 314 314 314 315 314 314 315 314 317 319 316 313 310 311 313 312 311
312 312 312 312 311 312 311 311 311 311 311 311 311 311 311 310 310 311 311 312 312 312 311 311 311 310 309 310 314 316 316 315 314 315 315 315 315 317 316 317 316 315 314 313 312 315 317 315 315 319 318 316 318 320 319 317 316 318 321 321 321 319 319 319 317 319 318 316 316 315 313 313 316 315 313 313 314 313 313 313 315 312 306 306 312 318 320 315
313 313 313 313 312 313 312 312 312 312 312 311 311 311 311 311 311 311 310 311 311 312 312 312 312 310 310 312 315 318 317 316 314 314 314 314 316 317 317 317 316 315 313 312 314 316 317 316 316 315 317 317 317 318 315 314 317 319 321 322 321 319 322 320 316 317 319 317 314 312 314 315 314 313 311 312 312 312 313 311 313 312 309 310 314 317 317 313
314 314 314 314 314 313 313 313 312 313 312 312 312 312 312 312 312 311 311 311 310 311 311 311 311 311 313 312 313 315 316 315 313 315 315 316 317 317 317 316 316 314 312 312 313 313 315 317 317 314 317 318 315 315 315 314 318 321 320 321 320 319 320 318 315 317 318 318 313 312 316 315 312 312 312 312 313 313 312 313 313 312 313 313 312 313 313 314
315 315 315 314 314 313 313 313 313 312 312 312 312 312 312 312 312 312 312 312 311 311 310 310 310 312 314 312 312 314 314 315 315 315 316 316 316 316 316 316 315 313 311 311 311 310 313 315 314 313 314 315 314 313 316 315 316 320 319 318 318 317 317 315 315 316 314 316 315 313 315 315 312 313 313 315 318 316 314 316 315 313 315 313 311 310 310 311
315 315 315 314 314 314 314 313 313 313 312 312 312 312 312 312 312 312 312 312 312 312 311 310 309 310 312 312 313 314 313 315 315 315 315 315 315 315 315 315 314 313 311 310 310 311 311 311 310 310 312 314 313 313 315 315 313 315 315 315 317 316 315 313 313 314 312 314 315 312 313 314 312 312 314 314 317 317 315 317 316 315 317 314 312 309 308 309
316 315 315 315 314 314 314 314 313 313 313 312 312 311 310 310 310 311 311 312 313 312 312 311 309 309 311 312 314 314 312 313 314 314 314 314 315 314 314 314 313 312 311 309 309 310 310 310 310 312 314 312 313 313 312 313 312 313 312 313 316 315 313 312 313 314 312 313 314 312 311 315 315 315 315 313 313 314 314 316 315 314 314 313 311 309 308 307
316 315 315 315 315 315 315 314 314 313 313 312 311 309 309 309 309 309 310 311 312 312 313 312 310 310 311 314 314 312 312 312 312 313 313 314 313 313 313 312 312 311 311 310 309 310 310 310 311 313 313 312 315 312 310 313 313 312 313 313 314 314 314 313 313 314 312 313 315 312 312 319 320 317 315 312 311 312 313 316 315 313 313 312 311 309 309 307
316 316 316 316 315 315 315 315 314 314 314 312 310 309 309 309 309 309 309 310 311 312 313 311 310 310 312 315 313 311 312 312 312 312 312 313 312 312 311 311 311 310 310 310 309 312 312 309 310 311 310 312 314 310 311 319 320 314 311 313 315 314 316 315 313 312 311 313 314 312 313 316 318 317 314 312 313 313 314 316 315 314 313 312 312 310 310 309
316 316 316 316 316 315 315 315 315 315 314 312 310 309 309 309 309 308 308 309 310 311 313 311 310 311 313 315 311 312 312 312 312 312 312 313 312 311 311 311 311 310 311 310 310 312 312 310 311 313 313 311 311 314 318 322 326 321 312 315 319 315 316 315 313 312 311 312 311 312 315 314 313 314 313 313 314 315 315 316 316 315 313 312 312 311 311 309
316 317 316 317 317 316 316 315 315 316 314 312 310 309 309 310 311 310 310 310 310 312 312 312 312 311 314 314 311 312 312 312 313 313 313 312 312 312 311 311 310 311 311 311 311 312 311 312 311 313 314 311 314 323 323 319 325 324 313 315 319 316 314 313 315 316 312 311 311 311 314 314 314 315 313 312 311 313 315 316 315 314 313 312 311 310 310 309
317 317 317 317 317 317 317 316 316 316 315 312 310 309 311 313 313 312 312 311 312 313 311 313 312 309 312 313 312 313 312 312 313 313 314 312 312 312 310 310 308 309 310 310 311 311 310 310 310 313 316 314 316 321 320 318 320 319 314 315 318 316 313 313 316 317 312 311 313 312 311 312 313 314 315 313 312 312 313 313 312 311 311 311 310 310 310 309
318 318 318 318 318 318 318 317 316 316 315 312 310 311 313 313 312 312 313 313 313 312 311 312 311 313 317 314 313 314 311 311 312 313 312 312 311 311 311 310 307 307 310 310 310 310 311 313 314 317 317 314 314 315 316 318 316 316 316 316 316 315 313 313 314 314 313 312 312 313 311 310 311 310 311 312 312 311 311 310 310 309 309 310 310 309 310 309
319 319 318 318 318 318 318 317 317 317 314 312 311 311 313 315 314 313 312 313 315 315 314 314 314 317 320 316 312 311 312 312 313 312 311 311 310 310 310 309 309 311 312 313 313 311 314 316 316 316 315 313 313 313 314 315 314 314 314 314 313 312 312 313 311 311 312 311 311 312 310 309 310 310 310 309 310 310 310 310 309 309 309 309 309 309 309 310
320 320 320 319 319 318 318 317 317 317 314 312 310 310 315 319 317 316 315 315 317 317 318 318 316 317 318 314 312 311 313 313 313 312 310 311 310 310 310 308 312 314 313 318 317 311 312 315 315 315 314 313 312 312 312 312 312 312 312 313 312 311 311 310 311 310 310 310 311 312 310 310 310 309 309 309 309 309 309 309 309 309 309 309 310 309 309 310
319 319 320 320 319 318 318 318 318 317 314 312 310 311 315 314 312 315 316 317 314 310 316 318 312 314 315 313 311 311 313 314 313 312 310 311 310 312 313 310 313 314 314 320 317 310 310 314 315 315 313 312 312 312 311 311 311 312 312 312 312 311 311 310 311 310 309 309 312 312 311 310 310 310 310 310 309 309 309 310 310 310 310 311 310 310 310 310
318 318 319 319 319 319 318 318 318 317 315 311 309 310 310 308 308 310 309 314 314 306 311 314 309 311 312 311 311 311 313 315 315 313 310 310 311 314 315 312 315 316 315 316 314 312 313 313 313 312 312 313 313 312 311 312 312 312 312 312 312 311 311 311 311 312 311 311 314 315 312 309 310 310 310 310 310 309 310 310 311 311 311 311 311 311 311 311
319 319 319 319 319 319 318 319 318 318 316 311 309 309 308 307 308 308 307 313 317 311 313 315 311 311 311 311 311 311 314 314 314 314 311 310 312 315 314 312 314 316 315 314 314 315 316 316 313 309 310 311 312 312 312 312 311 313 313 313 313 311 312 313 313 316 314 311 313 314 311 310 310 310 310 310 310 310 310 311 311 311 312 312 312 312 311 311
320 319 319 319 319 319 319 319 318 318 317 312 310 310 309 308 307 308 310 314 317 315 314 312 310 312 313 310 309 311 314 313 314 314 311 312 313 313 313 314 315 315 314 313 314 314 315 317 315 311 310 311 312 313 313 313 312 314 314 312 312 312 312 312 313 316 314 314 317 314 311 313 314 314 314 312 311 311 310 310 311 310 311 311 311 311 311 311
322 320 320 320 320 320 319 320 317 317 318 313 312 311 308 307 307 308 310 316 321 318 312 308 309 313 311 309 309 312 313 313 315 312 309 311 313 312 312 313 314 315 313 312 312 312 312 314 314 313 313 312 312 312 314 315 313 313 315 314 313 313 313 313 314 313 314 319 318 314 314 317 318 318 319 320 318 317 314 313 314 313 311 310 311 311 311 312
323 321 321 321 321 320 320 320 317 318 319 314 312 312 309 307 307 307 310 318 326 322 313 310 310 311 309 308 310 312 315 315 310 308 308 309 310 312 313 312 312 314 313 313 312 312 312 313 312 314 316 315 314 313 314 315 312 314 320 320 314 312 313 314 314 313 318 321 315 314 318 317 317 317 320 323 323 323 320 317 317 314 311 311 311 311 311 313
324 323 322 321 321 321 321 321 319 320 321 316 313 313 309 307 306 305 311 323 329 321 314 312 309 309 309 308 309 312 316 315 307 307 309 308 309 310 312 313 311 311 311 313 315 314 314 313 312 313 313 315 315 313 314 313 313 317 321 323 319 315 316 315 313 313 318 319 314 316 318 317 317 316 318 320 319 320 318 315 314 311 311 312 312 312 312 313
324 323 323 322 322 321 320 320 319 319 321 317 315 313 309 307 306 307 317 332 331 319 314 312 308 309 310 307 308 310 311 310 308 308 306 306 309 309 312 314 313 313 312 313 315 314 314 314 315 313 312 315 315 314 317 314 314 318 316 318 319 317 316 315 316 317 316 317 317 316 315 318 319 315 317 317 315 319 317 314 313 311 312 313 312 312 312 312
323 323 324 323 323 321 320 320 319 319 320 316 316 316 309 307 306 310 324 332 328 316 313 312 309 310 312 309 310 312 309 308 310 310 307 307 308 308 311 313 312 312 312 313 313 312 313 314 315 315 315 315 314 316 319 316 315 316 314 315 319 320 319 316 318 320 319 319 319 317 316 319 320 318 320 317 316 322 319 314 314 313 313 313 312 313 313 313
322 322 323 322 321 321 320 320 319 321 320 317 318 316 309 309 311 317 329 328 324 320 313 311 311 310 312 312 313 313 311 311 310 311 311 309 309 310 309 309 311 315 314 312 313 312 311 310 310 314 315 315 315 314 313 314 314 312 314 318 320 321 320 320 321 320 319 321 320 320 318 318 320 320 322 321 320 321 318 316 317 317 319 317 315 314 313 313
320 320 322 321 320 320 320 320 320 321 320 318 319 314 310 317 321 327 332 324 322 324 314 311 314 312 314 315 315 314 311 313 312 311 312 311 312 313 310 309 313 319 319 315 314 313 311 310 312 316 316 315 316 313 311 312 311 312 317 319 318 321 322 323 323 319 319 323 321 319 316 317 320 318 318 320 319 317 317 318 320 322 325 321 316 314 313 315
317 318 319 320 319 319 320 320 320 321 320 318 316 314 317 325 326 328 330 324 325 325 315 314 315 315 317 315 316 317 313 314 312 311 316 315 315 315 314 315 317 318 322 321 318 318 315 314 313 314 314 313 314 315 315 313 311 313 318 318 316 320 321 323 324 320 320 323 318 315 315 316 317 315 315 316 314 315 315 315 317 320 321 318 315 315 314 315
314 316 317 318 319 319 319 320 320 320 319 317 316 317 321 327 329 328 328 328 327 319 313 316 314 314 316 314 319 319 312 314 314 310 314 314 313 317 317 317 316 315 317 318 319 320 320 316 311 310 312 313 314 315 315 317 315 313 316 318 318 320 321 324 325 321 320 320 315 312 315 317 316 317 319 316 313 315 314 314 316 316 316 314 313 312 312 312
311 312 314 316 318 319 319 319 319 319 317 316 318 322 323 326 329 327 327 328 326 318 314 316 315 315 315 314 320 318 314 318 316 310 313 312 313 321 321 315 312 313 314 314 316 319 318 319 316 314 315 315 312 312 318 322 317 312 315 319 319 323 326 325 326 323 320 321 316 310 316 321 318 317 318 316 316 317 317 317 316 314 313 313 313 312 312 311
309 310 311 314 316 318 319 319 318 318 316 315 318 324 326 328 328 327 328 327 325 320 315 314 315 317 319 320 320 317 315 319 316 311 313 315 317 323 325 319 313 312 314 315 317 317 315 319 320 315 313 312 311 314 320 322 317 313 315 319 317 321 324 319 321 322 317 319 318 313 317 322 318 315 314 314 315 314 315 314 312 313 313 313 314 314 312 311
308 309 310 312 314 316 318 319 318 316 316 317 320 324 324 326 327 328 327 320 317 318 317 318 319 320 323 323 321 317 313 314 315 314 314 315 317 319 322 322 316 311 312 314 318 318 316 319 319 313 311 311 311 313 315 316 317 315 314 318 317 317 318 316 320 320 315 316 318 316 318 318 316 317 315 315 316 315 314 313 312 313 312 311 313 314 312 312
306 307 309 311 313 314 317 318 317 315 315 318 322 325 323 324 326 327 324 315 313 318 321 321 321 321 322 323 324 319 314 314 315 315 317 318 316 316 318 320 316 311 310 312 315 317 317 317 317 314 313 312 309 311 313 312 314 317 319 318 315 313 315 317 320 321 319 318 318 317 318 317 317 319 318 315 316 317 317 316 316 316 313 313 314 314 312 312
303 305 309 310 311 312 315 317 316 314 316 319 321 323 323 323 321 321 320 315 315 321 323 322 322 324 323 324 326 320 315 319 319 317 321 321 316 316 318 318 314 311 310 310 312 317 317 315 316 316 315 314 313 314 315 312 309 313 317 315 314 316 318 318 319 320 319 319 319 318 317 316 316 317 317 316 315 315 315 316 317 318 317 316 317 316 314 312
303 307 310 311 310 311 314 316 315 314 316 319 321 321 322 322 320 320 320 318 318 322 323 324 325 325 325 325 326 323 320 323 322 319 323 324 320 319 318 317 315 312 310 309 312 317 318 316 317 317 313 314 317 316 316 316 313 311 311 312 314 316 317 317 319 320 320 320 320 320 319 319 318 316 315 315 315 315 315 315 316 317 317 315 315 316 314 313
304 309 311 311 312 312 314 315 313 315 318 320 320 320 320 321 321 322 320 317 318 320 322 325 326 323 324 325 324 323 323 323 323 322 323 325 324 322 320 318 316 315 313 311 312 316 317 317 318 318 316 315 317 317 316 316 316 313 312 314 314 313 316 317 317 317 318 319 320 321 321 321 320 317 316 316 315 315 315 315 315 315 315 313 313 315 315 317
304 308 310 311 313 314 314 314 314 316 318 319 319 319 319 319 319 321 319 315 316 318 318 322 324 322 322 322 322 322 322 323 324 322 322 323 323 322 321 320 318 319 317 314 315 317 316 317 318 318 317 316 316 317 315 314 315 314 314 315 314 314 317 318 317 318 318 318 319 320 320 321 321 318 315 316 315 315 315 315 313 312 313 315 316 316 316 316
305 308 309 311 313 314 314 316 316 316 317 318 318 318 317 317 317 318 318 316 316 316 316 318 321 321 319 319 320 321 321 323 322 321 321 321 320 320 319 320 320 320 318 315 317 319 317 317 318 317 316 316 315 315 315 314 314 314 315 316 316 315 316 318 319 318 318 317 317 318 317 319 321 319 315 315 315 314 315 315 313 312 312 313 314 311 308 305
304 306 307 309 312 313 315 318 317 316 317 317 317 317 316 317 317 317 316 316 316 316 316 317 317 317 318 318 318 319 320 320 320 320 320 319 319 318 316 319 319 316 316 318 317 317 315 315 316 316 315 315 316 317 317 314 313 315 316 315 315 315 315 317 316 315 317 317 316 317 317 318 323 323 317 317 318 316 316 314 313 312 308 306 305 302 299 297
301 302 304 306 309 312 315 318 318 317 317 316 316 316 316 316 316 316 315 316 317 316 316 317 316 316 317 317 317 318 319 319 317 318 319 319 319 316 313 315 316 314 314 315 314 314 315 316 317 317 317 317 317 317 316 314 315 316 316 315 314 314 314 315 314 313 315 315 315 317 316 317 326 327 320 319 319 317 315 311 307 305 302 300 299 297 296 296
301 302 303 303 304 308 312 315 316 316 317 316 317 316 315 315 316 316 315 315 315 316 316 316 316 314 315 315 315 316 316 317 317 317 317 317 317 312 308 311 313 312 311 309 310 312 314 315 316 317 317 317 316 315 314 316 316 315 315 316 315 315 314 314 314 314 315 315 315 316 315 315 319 320 318 318 317 315 311 305 300 298 298 297 297 296 295 294
301 303 303 303 304 306 308 310 311 314 315 315 316 315 315 316 315 315 315 315 315 315 314 315 314 313 313 313 314 314 314 315 315 315 315 316 316 311 305 307 308 308 308 308 308 310 311 312 315 315 315 316 315 315 314 315 316 315 315 316 316 315 314 314 315 315 315 315 315 315 315 315 314 314 315 315 313 310 304 299 297 296 295 295 294 294 294 293
300 301 303 306 306 305 306 307 308 311 312 313 314 314 314 315 314 314 314 314 314 313 313 314 313 313 314 314 314 313 314 314 313 313 313 312 312 308 305 307 306 304 305 306 306 308 309 310 313 313 313 314 314 313 313 313 313 313 314 314 314 314 313 313 314 313 314 316 316 316 315 316 316 316 313 307 304 303 299 295 295 294 293 294 293 293 293 292
299 300 301 303 303 304 305 305 305 306 308 310 311 312 312 312 312 312 311 312 313 312 313 313 313 313 313 313 313 313 314 314 313 312 311 307 306 306 307 308 306 304 303 303 304 308 309 308 310 311 311 312 310 309 310 310 310 311 312 312 313 313 313 313 313 313 314 314 315 315 314 316 315 311 304 298 297 298 296 294 293 293 293 293 293 292 293 292
297 298 299 299 299 300 301 301 300 302 304 306 308 309 310 310 309 309 310 311 311 311 312 313 311 308 307 307 310 312 311 312 312 310 307 304 304 305 306 306 306 303 301 300 302 306 308 308 309 309 308 308 307 307 308 308 309 309 310 311 312 312 312 312 312 313 313 313 314 313 313 315 309 300 297 295 294 295 294 292 292 292 292 292 292 292 292 292
296 297 297 297 297 297 298 298 299 300 301 304 306 307 308 309 308 308 309 309 310 311 312 311 306 303 302 304 305 306 306 306 307 306 302 301 303 303 303 304 304 301 299 299 301 305 307 307 306 306 306 305 305 306 307 307 308 309 309 310 311 310 310 310 310 310 310 311 311 310 313 313 302 294 294 294 292 293 293 292 292 291 292 292 292 292 292 292
295 295 296 296 295 296 297 298 299 300 301 302 305 306 307 307 305 304 305 306 306 307 306 303 301 300 301 302 302 303 302 300 300 301 299 299 301 301 300 300 300 298 298 299 301 304 304 303 303 303 304 304 304 305 305 305 306 306 306 305 306 306 306 306 307 309 309 309 310 311 312 307 298 293 293 293 292 293 293 292 292 291 292 292 292 292 292 292
294 295 295 295 294 295 296 296 297 299 300 301 302 303 303 302 300 300 304 304 301 299 298 297 298 299 300 301 301 300 298 297 298 298 298 298 298 297 298 298 298 298 298 298 299 301 301 301 301 302 302 303 303 303 303 303 303 303 303 304 305 305 305 306 307 306 304 304 306 307 304 298 294 293 293 293 293 292 292 292 292 291 291 292 292 292 292 292
Wind_Speed
8 8 8 8 9 9 9 9 9 9 9 9 9 9 10 10 10 10 10 11 11 12 12 13 13 14 13 11 9 9 9 10 8 7 7 6 7 7 8 7 4 7 11 8 7 8 6 3 4 4 4 3 2 0 1 1 2 2 3 2 3 4 4 6 8 7 4 4 6 3 1 3 7 5 2 1 1 3 4 4 5 6 7 8 6 5 2 8
8 8 8 8 8 9 9 9 9 9 9 9 9 9 10 10 10 10 11 11 11 11 12 12 13 14 14 12 10 10 12 11 8 7 6 2 4 6 8 9 7 7 10 9 9 10 7 2 4 5 4 1 2 2 1 1 2 3 4 2 4 6 6 6 8 6 4 5 6 5 1 4 7 4 1 3 6 4 5 7 4 7 11 10 7 5 6 14
7 8 8 8 8 9 9 9 9 9 9 9 9 9 10 10 10 10 11 11 11 11 12 12 12 13 13 12 10 10 12 9 5 4 2 3 5 4 6 9 8 8 10 8 8 10 5 5 8 6 4 1 1 2 1 0 2 2 4 2 7 7 6 6 7 8 8 5 5 7 3 3 7 4 1 3 7 5 6 9 5 8 12 12 7 7 11 16
7 8 8 8 8 8 8 9 9 9 9 9 9 9 9 10 10 10 11 11 11 11 12 12 12 13 13 12 10 10 10 6 3 3 4 2 6 4 4 9 9 9 11 7 5 7 3 6 8 5 4 0 4 3 1 3 2 2 4 5 7 4 4 7 8 9 8 3 4 5 3 5 6 2 2 2 6 8 9 9 11 12 13 13 7 8 13 15
8 9 8 8 8 8 9 9 9 9 9 9 9 9 9 10 10 10 10 10 11 11 12 11 12 13 12 11 9 9 8 5 2 4 2 4 6 4 2 9 10 10 12 8 6 7 6 7 7 5 3 1 2 2 3 5 3 2 4 7 6 5 4 7 7 8 5 3 3 4 5 7 4 1 5 5 5 11 8 8 12 14 13 12 8 8 10 11
9 9 9 9 9 9 9 9 10 10 10 10 10 10 10 10 10 10 10 10 10 10 11 11 11 12 11 10 7 5 4 1 5 2 5 8 6 5 3 8 11 11 13 9 7 9 6 6 5 3 2 0 3 4 5 3 3 3 5 5 6 6 6 6 3 4 4 3 4 4 5 5 6 8 5 9 11 16 12 7 10 11 11 9 5 7 9 11
9 9 10 10 9 9 10 10 10 10 11 11 11 11 11 11 11 11 11 11 11 10 10 10 11 10 10 9 5 3 4 5 12 9 10 10 8 5 4 8 11 13 14 11 9 8 5 6 4 4 4 1 4 6 5 1 2 3 5 5 6 6 8 9 3 2 3 6 7 3 5 7 11 10 1 7 13 17 15 9 9 11 9 7 5 8 11 13
9 9 10 10 10 10 10 11 11 12 12 12 12 12 12 12 12 12 12 12 12 11 11 10 10 10 10 6 2 3 1 8 16 14 12 9 7 5 6 8 11 14 15 14 11 9 6 6 6 4 2 4 4 4 3 1 1 5 7 5 3 3 8 9 6 5 7 8 6 2 8 15 14 7 5 10 16 17 16 11 10 11 9 7 9 10 10 11
9 9 10 10 10 10 10 11 12 13 13 13 14 13 14 13 13 13 13 14 13 13 12 11 11 9 7 2 4 3 5 8 10 8 7 7 8 7 8 9 12 15 13 12 12 10 7 6 6 5 4 4 4 4 3 2 4 7 8 5 3 5 8 7 7 7 8 6 4 3 12 17 8 4 10 14 18 18 13 11 9 9 10 9 10 11 10 11
9 9 10 10 10 10 11 12 13 13 14 15 15 15 15 15 14 15 14 15 14 14 13 12 11 8 5 0 2 5 8 6 5 7 8 9 10 9 10 10 12 16 13 8 11 12 7 7 7 5 4 2 4 4 3 4 4 5 5 5 6 8 8 5 6 8 5 5 7 8 14 16 4 1 8 10 12 10 6 8 7 5 10 10 10 10 9 11
9 10 10 11 10 11 12 13 14 15 16 16 16 16 16 16 16 15 15 16 15 14 13 12 10 8 5 2 3 7 7 6 8 9 11 12 12 11 11 11 13 16 13 7 11 15 9 7 7 5 2 2 3 3 3 5 2 2 1 6 8 7 9 6 8 8 4 4 9 12 10 12 4 2 13 16 8 3 5 11 9 6 9 10 9 10 7 10
10 11 11 11 11 12 13 14 15 16 18 18 18 18 17 17 16 16 16 16 16 14 13 12 10 7 3 1 7 14 14 12 12 12 13 13 13 11 10 12 13 14 14 8 8 14 12 8 8 5 4 3 1 1 4 4 1 1 2 5 10 7 10 10 8 5 6 4 6 9 3 7 7 9 18 19 6 2 6 11 12 10 10 9 9 8 7 10
10 10 11 11 12 13 14 15 16 18 19 20 20 19 18 18 17 18 17 16 16 14 13 11 8 5 2 2 7 15 20 19 18 17 17 16 13 11 10 10 11 11 12 9 5 6 11 12 9 6 4 4 3 2 1 2 1 3 2 0 7 7 9 8 2 1 4 5 7 7 3 6 11 17 20 14 4 3 6 10 13 11 9 8 8 7 9 10
9 10 11 12 13 14 15 16 17 19 21 21 20 19 19 19 18 18 17 17 16 13 11 7 4 4 3 6 9 9 14 18 19 20 19 18 14 9 7 8 9 10 10 9 5 3 7 11 7 3 1 3 3 2 3 5 3 4 2 1 3 3 7 6 1 3 1 4 7 6 5 8 10 17 20 9 4 7 8 11 12 11 9 8 8 7 9 11
10 11 12 13 14 15 16 17 18 20 22 22 20 20 20 20 19 18 17 16 14 10 7 4 5 6 2 8 11 8 11 13 16 20 20 19 14 7 6 8 7 8 8 7 6 4 7 9 5 2 2 1 1 2 3 4 3 2 2 3 2 3 6 10 5 6 7 4 3 6 5 8 9 16 20 7 4 7 8 11 11 11 10 9 9 7 9 11
11 12 13 14 15 16 17 18 19 21 22 22 21 21 20 19 17 15 13 11 9 6 3 4 8 7 1 5 7 8 9 10 12 14 15 17 15 8 7 9 7 7 8 6 6 6 7 7 2 2 1 2 1 2 3 4 5 2 2 5 5 5 4 8 9 7 8 2 1 7 6 7 7 11 15 8 1 6 7 10 11 12 12 11 10 7 8 10
12 13 14 15 16 17 18 19 20 22 22 22 22 20 15 13 12 10 6 1 3 5 5 4 7 5 2 5 6 8 7 8 11 9 9 12 13 11 11 8 5 8 8 5 6 5 3 3 0 0 1 1 2 4 3 2 5 3 2 4 5 6 6 5 8 7 2 6 5 7 8 11 11 8 11 11 7 6 8 12 13 12 12 13 11 8 10 11
13 14 15 16 16 17 18 19 20 22 22 21 22 18 9 6 7 6 5 10 11 8 5 2 5 2 5 6 6 6 2 4 6 5 6 8 10 12 10 7 6 9 8 4 2 3 1 2 2 1 2 1 2 5 3 6 8 7 5 5 4 5 7 7 8 6 3 2 4 5 10 14 15 11 11 14 13 13 15 16 14 14 14 14 12 10 13 13
15 15 15 16 16 18 18 19 20 21 22 22 20 12 4 4 5 6 7 8 7 4 1 2 4 2 4 7 7 5 2 2 3 3 6 9 12 11 8 7 7 7 5 1 1 3 2 2 4 2 3 7 8 8 11 14 10 8 6 6 7 6 7 7 10 8 3 4 5 9 14 14 15 15 13 14 13 14 20 19 14 13 12 12 12 12 14 16
17 16 16 15 15 17 17 18 19 21 22 22 20 10 2 4 3 2 3 0 4 4 3 5 7 4 5 5 2 2 2 3 3 4 9 12 15 12 5 4 6 4 3 4 3 2 3 3 3 6 11 14 12 11 14 12 4 4 4 6 8 8 9 9 12 11 1 1 7 11 16 16 15 15 14 15 13 12 18 21 18 14 11 11 12 15 16 17
18 17 16 15 15 16 16 17 18 19 19 18 17 8 2 2 2 4 5 5 9 10 8 10 10 9 12 9 2 2 0 1 2 4 9 12 15 11 1 3 5 1 3 4 3 1 2 5 8 14 16 10 7 9 10 7 5 6 6 7 7 7 11 12 14 14 1 1 7 9 16 18 15 16 14 14 16 15 17 19 21 18 14 12 12 16 18 16
16 14 15 17 16 15 13 15 17 17 16 14 13 7 2 0 1 3 2 4 10 9 10 12 9 9 16 17 9 2 2 3 4 2 10 10 8 6 3 5 6 4 3 4 2 1 2 6 13 17 10 0 1 5 5 6 8 8 5 6 7 5 10 10 10 11 3 1 6 9 15 15 13 17 16 17 19 17 15 14 16 18 18 17 15 16 17 16
14 12 14 15 15 14 12 14 15 15 14 12 10 5 1 2 2 2 0 3 8 5 6 9 8 8 12 16 11 6 4 7 6 5 10 10 3 4 5 6 6 3 4 6 7 5 4 7 15 15 5 2 5 2 4 3 4 6 6 6 7 6 8 7 5 6 4 3 6 11 15 13 12 15 16 19 19 15 14 13 13 16 18 21 19 16 14 15
13 13 14 13 12 12 11 14 13 12 14 9 7 6 3 3 1 1 1 3 5 5 6 6 5 5 7 7 5 8 6 5 4 5 11 13 4 2 4 5 5 3 6 11 12 10 9 8 7 8 7 8 8 5 5 5 5 8 8 7 9 11 10 9 5 7 6 5 5 8 14 10 8 10 11 10 8 9 12 13 14 16 19 20 19 18 13 11
13 13 11 9 10 10 11 13 9 10 14 7 5 8 5 3 1 0 2 2 4 6 5 3 1 3 5 2 4 7 3 2 3 5 11 13 6 3 2 3 4 5 9 10 9 10 10 6 4 6 7 8 8 8 7 7 8 7 6 11 16 14 11 10 8 7 5 5 4 5 9 9 4 7 8 5 3 7 8 9 15 18 19 14 11 15 12 8
15 13 9 8 9 11 10 7 5 10 12 4 4 9 7 4 3 1 1 2 5 4 2 1 1 1 3 3 3 5 3 2 4 1 6 7 5 4 2 1 1 4 7 5 3 4 5 4 5 7 7 7 7 7 8 10 7 8 6 12 15 10 8 9 7 4 1 4 3 3 1 10 5 5 8 7 4 9 9 11 16 16 14 9 6 11 10 8
16 15 10 7 8 10 6 3 7 10 6 2 5 9 8 5 3 3 1 3 5 2 3 1 1 2 2 1 1 4 3 4 3 2 2 1 1 1 2 3 1 1 3 2 2 3 3 2 3 6 5 6 6 6 7 9 6 7 5 8 9 8 8 7 4 4 4 3 3 2 5 7 12 4 6 8 7 9 12 14 16 13 10 11 10 10 9 10
17 17 13 10 10 11 7 7 8 6 2 3 6 8 8 5 3 2 2 3 5 2 3 2 0 1 0 1 3 4 1 2 2 1 2 1 1 1 1 5 5 3 3 4 5 4 3 4 6 6 5 4 7 6 6 10 7 7 3 5 6 6 6 6 5 4 2 4 4 4 5 2 12 6 3 2 5 8 13 15 15 11 10 12 12 10 9 11
18 17 16 15 16 15 12 10 8 5 5 3 5 8 8 5 3 4 3 3 2 2 1 0 1 1 2 2 2 3 1 2 2 3 3 1 1 3 2 5 6 4 4 5 8 6 0 4 7 8 6 6 8 5 7 11 7 4 3 4 4 3 3 5 4 3 3 3 5 6 6 2 11 7 3 2 3 7 11 11 10 8 9 12 11 11 11 10
17 18 18 16 15 15 12 11 13 11 8 4 5 9 8 4 2 2 4 5 1 1 0 1 0 1 3 4 2 3 1 2 1 2 3 1 2 4 1 3 5 2 4 2 7 7 3 1 3 5 4 6 4 2 4 7 4 1 4 5 6 4 4 4 1 3 3 5 6 9 11 6 7 5 3 3 4 5 5 8 8 6 6 10 9 9 10 9
14 16 17 16 14 13 8 7 13 13 10 8 5 7 5 2 2 3 8 3 1 2 1 1 2 1 3 3 1 2 0 2 1 2 1 1 2 4 2 0 3 2 3 4 6 6 3 2 3 3 3 4 5 3 1 1 3 2 3 3 3 4 4 4 4 3 2 7 5 9 11 8 7 6 1 4 6 5 5 7 10 8 7 9 8 8 8 8
12 13 15 15 15 15 11 6 6 6 8 8 1 4 2 1 2 7 6 3 2 2 1 1 1 2 2 1 1 2 1 2 1 3 3 2 2 2 3 4 3 1 4 3 3 5 3 5 4 2 2 5 5 2 3 3 3 4 3 2 1 4 3 3 3 1 3 7 5 7 7 5 10 9 4 9 13 10 8 7 8 8 8 10 11 10 9 9
11 12 12 13 13 16 17 14 8 4 6 8 4 3 3 2 5 5 3 2 2 1 1 1 1 1 1 1 2 3 1 2 3 2 2 3 2 3 5 5 5 2 4 2 2 4 4 5 1 1 3 4 8 6 4 2 4 6 6 5 4 2 2 4 4 2 4 6 2 3 3 3 9 7 6 11 13 10 6 7 8 9 9 11 11 10 11 11
10 11 11 11 11 13 16 18 15 10 10 10 5 2 2 6 6 1 2 5 3 2 2 2 3 2 0 2 3 3 2 3 2 3 1 2 1 3 4 5 5 3 2 2 2 2 4 7 3 5 2 4 10 9 5 4 5 6 5 5 5 5 4 4 4 4 6 4 2 1 3 3 5 4 5 9 9 8 6 7 7 6 8 9 8 9 11 11
12 11 12 11 11 11 13 17 17 13 12 8 3 2 5 8 5 0 3 4 2 2 2 2 3 1 3 3 3 2 3 4 1 4 2 2 3 4 3 4 6 5 3 3 3 2 4 8 5 3 2 4 6 4 2 6 1 3 3 4 3 5 5 2 4 5 3 2 2 2 4 5 5 7 9 9 10 9 9 8 6 7 9 7 7 10 9 9
13 12 11 11 12 13 13 17 18 17 14 6 1 5 7 7 4 2 3 1 1 1 2 3 2 1 4 3 3 3 1 2 0 1 2 3 3 4 4 4 6 9 7 5 3 1 2 5 4 2 2 1 2 3 2 2 2 1 3 2 5 4 5 2 4 1 1 4 5 5 7 6 5 10 10 7 8 8 6 7 7 9 10 7 7 9 8 7
12 12 9 9 13 14 13 16 20 19 11 3 4 8 6 5 4 4 3 1 1 3 2 3 2 2 3 2 2 3 1 0 1 1 1 2 3 4 5 4 4 10 9 4 2 2 3 3 3 2 1 2 2 1 3 0 3 3 2 4 3 2 3 2 2 2 2 7 6 7 13 10 6 8 7 7 12 12 7 7 8 8 8 7 8 8 7 7
11 9 8 12 17 16 12 15 20 15 6 2 7 9 5 3 3 3 3 2 1 2 2 4 4 2 2 3 2 1 1 1 0 1 1 2 3 3 3 3 2 6 7 3 1 2 1 2 3 3 2 4 2 1 3 2 3 3 3 3 1 2 2 1 2 2 5 9 6 7 12 10 6 8 10 13 18 18 11 6 7 8 7 7 7 7 8 8
9 4 5 8 12 16 15 17 18 10 2 4 8 8 4 3 3 3 4 3 2 1 2 5 4 2 1 3 2 1 2 3 1 1 2 2 3 1 2 2 1 2 4 3 3 2 2 2 4 2 2 3 5 1 3 3 3 0 1 2 0 3 3 2 2 1 4 8 7 7 9 6 6 8 12 16 19 21 17 8 6 9 8 6 6 6 8 8
4 1 3 3 3 10 17 17 11 5 3 6 8 6 3 2 3 3 4 2 2 3 3 4 4 3 3 3 3 3 2 4 3 2 2 2 4 3 1 1 2 2 1 2 1 2 2 2 4 2 0 1 3 4 5 6 6 3 3 3 3 3 2 2 2 2 3 7 7 8 8 6 4 5 11 17 19 21 21 12 7 8 6 6 6 7 9 9
1 1 3 4 2 11 18 12 5 4 4 4 7 8 5 3 3 3 2 1 2 3 1 3 5 4 4 4 4 3 2 3 4 4 3 4 5 5 4 2 2 1 2 1 2 2 0 2 4 6 5 5 10 10 10 14 13 8 7 7 6 6 3 4 7 5 5 6 6 8 10 6 5 6 11 16 17 18 17 12 6 5 5 6 7 8 9 8
2 3 1 5 6 20 15 4 3 3 3 4 4 5 3 3 3 3 2 1 3 2 1 2 4 4 4 5 5 3 3 3 5 5 5 6 8 7 3 4 6 5 3 3 5 5 4 3 3 8 9 11 16 15 11 13 11 6 4 5 5 5 4 6 10 7 5 7 6 9 12 6 5 8 11 13 13 13 12 9 6 6 5 6 7 8 8 9
1 3 5 6 10 20 8 3 5 3 4 3 2 2 2 2 3 3 3 2 2 2 2 2 4 5 5 5 5 5 4 5 6 7 6 5 7 8 5 3 3 3 2 3 4 4 2 2 4 8 8 9 11 10 5 4 4 3 4 5 6 7 8 10 8 4 6 9 8 10 13 6 1 6 8 9 9 10 9 8 7 7 6 8 9 10 11 11
1 3 4 5 6 10 4 4 7 6 6 4 5 6 4 2 4 7 6 4 3 3 3 3 4 5 6 5 5 6 6 5 6 8 6 4 5 3 4 5 3 1 2 2 2 3 2 2 5 6 6 7 7 7 5 1 2 3 5 6 8 9 10 10 6 3 6 11 12 14 12 7 4 4 5 6 7 9 9 9 11 10 10 11 11 11 11 11
2 1 3 5 6 4 3 3 3 5 6 7 9 10 8 5 5 8 8 6 4 4 3 3 3 3 4 4 3 4 6 6 5 5 3 4 4 3 9 9 7 3 2 5 4 3 2 2 4 6 7 8 8 7 5 2 2 2 2 6 9 10 11 9 7 7 9 12 14 13 11 10 7 5 6 7 8 10 11 13 13 11 10 10 10 10 10 10
1 2 1 3 3 2 2 3 1 2 4 6 7 7 11 11 6 4 6 6 6 6 4 5 4 2 2 3 5 6 7 7 6 5 3 3 2 2 4 5 6 4 3 8 8 3 0 1 5 8 11 10 10 11 8 7 8 8 7 8 9 10 10 9 7 9 11 11 12 12 14 15 13 11 10 8 10 11 10 10 10 10 10 10 8 9 9 9
1 1 1 1 2 2 3 3 2 2 2 3 3 3 8 11 7 3 5 4 4 4 4 5 6 6 6 5 7 7 7 8 9 7 5 3 2 4 4 3 5 5 5 5 6 3 1 2 5 11 14 12 12 14 12 12 12 12 12 12 12 12 12 11 11 12 11 10 9 9 12 15 13 11 9 10 11 9 7 8 8 9 9 9 8 10 11 11
1 1 1 1 2 2 2 2 3 3 4 5 2 2 5 7 6 4 2 2 2 1 2 4 5 8 8 7 8 7 5 7 7 4 1 1 2 5 6 2 1 3 6 4 3 3 1 3 5 10 13 9 9 12 11 10 11 11 11 13 13 15 16 16 17 16 12 11 10 10 13 16 12 7 7 9 9 8 7 7 6 7 7 8 9 10 11 11
1 1 2 2 1 1 2 3 4 4 4 6 3 3 7 10 11 7 2 2 3 1 4 5 3 1 3 4 5 5 5 5 4 2 3 2 1 1 3 3 2 3 6 6 3 1 3 4 4 7 10 9 10 11 11 11 12 12 12 12 12 14 17 17 17 16 16 17 17 16 19 17 7 4 5 6 6 5 5 5 6 7 8 8 9 9 10 10
1 0 2 3 1 2 2 2 3 3 3 5 5 5 6 9 11 7 2 4 6 3 4 4 1 3 3 3 2 2 2 2 2 2 2 2 1 1 0 2 3 4 6 5 3 2 3 4 6 7 8 10 13 13 11 11 11 12 13 13 14 16 17 17 15 15 16 17 16 16 17 11 2 4 3 5 5 4 4 5 6 7 7 8 9 9 9 9
0 1 1 2 2 2 0 1 1 1 3 4 5 4 4 4 5 4 2 2 2 1 2 3 3 2 1 1 2 2 1 5 4 2 3 1 1 1 1 2 4 7 6 3 2 3 3 3 5 7 7 8 11 13 13 12 12 14 16 17 18 18 17 16 16 14 13 12 12 13 11 4 2 3 4 4 6 7 6 6 6 6 6 6 7 8 8 8
1 2 0 1 2 2 0 1 1 2 3 3 1 2 2 1 4 4 2 1 5 6 6 5 3 2 1 2 2 1 2 2 1 2 1 3 5 5 5 6 7 6 5 4 2 2 4 3 4 6 6 7 11 13 12 10 11 13 13 12 15 16 14 14 13 9 6 4 5 7 4 2 3 4 4 5 7 8 7 6 5 5 5 6 6 7 6 6
Wind_Direction
7 9 8 10 9 8 9 8 10 9 10 7 4 1 356 356 354 354 352 351 353 352 353 351 354 357 356 356 346 335 325 310 299 281 263 278 286 259 250 251 230 214 212 205 189 169 142 124 148 131 120 92 15 1 43 16 101 74 94 134 236 199 200 193 190 201 191 257 266 296 101 192 286 290 274 346 301 265 280 281 278 284 262 237 248 286 275 173
1 1 2 3 2 3 2 3 4 3 5 3 1 357 354 353 349 349 347 347 348 348 349 348 350 350 353 355 348 344 331 316 307 278 260 304 318 268 241 229 227 216 203 200 200 178 148 181 171 107 72 66 342 9 1 315 122 113 121 162 233 203 211 199 187 198 202 235 259 286 280 208 249 261 28 275 275 307 293 280 284 280 270 260 248 230 195 175
354 353 355 357 356 357 356 357 357 357 359 358 356 353 350 348 345 344 342 342 342 343 344 344 345 345 349 350 350 348 331 323 319 268 204 56 8 303 235 213 213 209 204 205 208 194 180 190 162 112 54 30 319 16 28 323 182 171 130 200 244 215 228 235 204 207 220 235 286 292 284 215 244 238 126 249 282 294 259 261 257 254 260 259 233 182 185 179
346 346 347 348 350 348 349 351 350 350 351 350 349 346 344 341 340 337 336 337 336 338 338 340 341 341 344 347 351 345 338 344 311 194 153 24 2 351 219 201 204 204 203 202 193 200 193 146 137 95 72 140 321 9 186 231 209 180 151 207 237 194 230 242 213 221 234 230 253 280 329 288 263 203 198 243 302 283 244 237 235 238 246 251 233 183 185 185
342 341 342 342 343 342 343 344 342 344 341 343 341 337 337 333 332 330 329 329 329 331 331 334 335 336 340 343 349 348 3 15 287 185 181 316 339 340 211 193 201 199 196 193 168 159 140 123 103 59 80 176 320 38 240 224 140 169 215 232 228 157 235 245 206 223 226 181 228 269 301 283 280 217 210 191 244 263 247 218 223 232 237 244 232 189 186 194
340 339 340 338 340 339 338 339 337 336 334 335 333 330 329 323 322 320 318 319 319 321 321 324 326 329 331 334 337 349 39 334 269 249 295 308 313 309 216 196 196 193 195 192 164 148 127 102 92 96 106 60 206 196 246 229 133 235 251 258 242 187 233 255 195 207 183 172 234 245 282 296 298 282 219 175 225 253 254 223 221 235 234 239 215 172 188 203
340 340 340 337 339 338 337 336 333 332 330 329 327 325 321 318 315 311 309 307 307 308 309 312 314 316 321 328 325 350 92 240 272 282 293 296 291 285 220 203 192 193 197 185 159 148 120 107 151 157 117 315 218 211 239 210 121 244 260 266 252 206 228 253 255 245 213 239 247 261 322 292 268 278 219 187 236 255 260 248 239 252 243 229 203 188 205 207
340 341 340 339 340 340 338 335 332 331 329 328 325 322 318 316 312 308 306 300 298 298 297 297 299 305 313 325 344 342 144 252 275 279 280 281 277 264 220 202 192 196 198 195 178 157 136 142 182 159 133 241 200 189 208 139 117 223 236 248 252 222 239 262 279 271 259 256 250 271 288 266 252 267 282 250 255 261 263 261 248 257 257 230 225 219 217 215
341 341 341 341 341 341 339 335 334 331 330 328 324 322 319 317 313 309 304 299 297 295 293 294 293 298 302 337 75 329 262 260 276 267 266 272 270 251 222 207 199 201 197 204 192 165 164 179 201 190 195 216 171 188 186 180 241 217 222 248 271 269 269 280 281 254 248 248 195 197 262 266 265 279 270 249 250 261 263 265 256 253 257 239 234 228 217 221
339 339 339 339 340 338 337 335 333 331 329 326 323 322 319 317 314 309 304 299 297 295 295 293 290 290 284 329 76 282 266 264 259 245 262 271 261 238 223 221 211 205 195 195 190 176 179 194 192 173 176 165 166 200 162 173 216 197 213 266 259 265 277 263 261 254 242 249 196 191 252 268 299 352 267 243 230 251 264 267 266 243 249 242 238 236 220 223
338 339 338 338 340 338 338 336 334 333 329 325 323 321 318 315 310 306 303 297 294 296 296 294 292 283 266 167 182 254 262 254 251 255 266 266 255 241 236 236 222 209 194 178 195 197 198 192 158 125 173 189 176 199 215 202 194 182 193 301 276 281 290 241 244 259 222 254 204 185 248 279 323 158 250 258 236 224 275 278 275 248 248 249 242 242 228 227
337 338 338 340 341 339 339 336 335 332 328 326 323 321 318 313 308 302 296 291 291 293 291 294 293 272 257 174 221 247 257 254 255 261 264 260 251 244 241 237 229 219 205 190 207 211 212 202 153 155 215 177 168 237 235 218 153 269 71 317 290 321 305 259 247 246 184 222 181 159 263 289 268 237 245 260 251 190 269 275 275 261 253 253 247 244 238 237
337 338 340 340 341 341 339 337 335 332 328 326 324 322 317 312 307 297 289 284 284 286 287 292 285 246 205 259 243 250 257 256 257 258 257 253 245 242 236 227 224 221 216 210 212 207 210 208 175 182 205 157 235 235 119 51 33 292 67 309 296 332 308 270 216 101 161 200 157 145 270 252 246 256 257 260 238 215 256 262 267 267 260 256 249 244 245 245
336 338 339 340 340 340 340 339 336 332 330 328 328 325 318 312 303 290 284 281 279 281 282 282 255 179 158 259 265 267 261 258 255 251 249 245 234 230 228 215 211 208 211 212 201 160 192 200 172 150 217 170 244 291 11 4 359 304 302 218 308 296 286 301 99 112 193 223 151 152 257 245 242 262 267 267 184 200 237 255 263 267 266 263 254 245 251 251
336 337 339 340 339 340 341 339 336 334 332 331 332 328 321 312 300 291 285 279 277 274 268 239 184 145 90 274 272 280 268 258 255 250 249 243 224 210 205 192 191 190 193 194 185 168 168 171 149 143 257 263 40 353 331 339 358 351 280 279 309 210 269 307 289 197 221 274 117 162 237 258 247 255 267 289 125 186 232 254 262 270 270 268 263 251 253 259
335 336 337 337 337 340 340 338 337 335 333 335 335 331 324 314 307 301 288 276 270 249 213 186 173 146 63 273 280 289 265 248 253 256 250 238 226 207 169 159 154 156 166 170 165 162 148 136 125 154 235 293 152 101 28 351 325 331 219 254 268 241 278 313 294 245 205 187 224 213 233 270 259 253 270 294 182 191 230 256 260 266 271 268 267 261 258 265
329 330 331 332 333 335 336 337 337 335 336 338 338 334 330 321 322 323 305 251 158 154 125 149 162 142 270 263 288 284 251 236 245 251 240 227 217 189 154 131 123 131 128 129 148 145 122 112 54 9 42 336 142 108 58 304 277 284 213 234 245 245 265 296 294 297 150 157 217 243 241 254 262 271 290 298 281 245 248 261 262 262 268 270 269 268 266 263
324 323 324 325 327 330 332 335 335 336 338 341 341 337 335 343 357 22 89 115 111 108 85 81 136 135 268 252 264 268 243 223 225 227 217 194 181 175 155 128 124 122 100 63 137 149 10 28 81 36 345 289 163 133 181 230 233 237 229 246 267 251 249 259 270 294 328 219 216 259 255 255 267 275 281 282 280 281 272 265 264 263 261 266 271 269 265 263
315 313 313 317 324 327 329 334 336 339 341 346 350 340 327 13 37 75 95 108 108 113 144 215 164 155 258 251 256 273 295 176 180 182 168 155 158 158 133 117 111 109 109 61 246 184 137 56 80 118 226 231 213 178 203 225 228 232 230 243 268 270 253 247 257 262 287 292 265 262 265 264 269 270 270 270 266 270 275 274 269 263 259 261 264 261 260 261
313 314 314 315 321 323 330 336 338 344 348 351 355 351 350 8 12 25 13 1 215 205 192 213 208 230 273 275 274 264 247 193 193 171 157 157 151 135 100 88 79 74 144 161 201 198 138 160 165 194 217 225 218 197 215 237 273 281 255 256 259 267 269 260 267 269 145 294 259 253 269 272 271 271 268 268 265 258 268 276 274 268 262 257 254 256 258 258
317 321 324 320 316 321 332 339 341 350 354 359 5 14 94 44 4 316 316 287 257 242 243 236 220 242 260 259 236 140 23 258 241 159 159 162 148 140 133 119 118 182 201 148 152 46 125 181 210 218 220 221 206 200 223 253 286 270 256 270 266 253 266 263 267 276 288 179 257 251 270 274 271 273 269 268 267 256 252 263 275 279 272 260 253 256 259 259
316 322 328 325 322 326 333 340 345 350 356 13 31 53 125 352 269 275 292 289 281 251 241 249 236 247 253 252 248 167 46 288 273 197 160 155 150 176 195 133 160 200 164 122 130 262 182 212 229 227 223 94 141 166 180 220 241 250 252 271 270 256 272 269 260 280 309 203 270 274 274 272 266 267 264 259 257 256 253 250 264 276 277 271 260 254 258 263
321 326 321 316 324 331 332 340 342 348 360 22 43 54 13 326 263 256 252 264 287 265 230 243 234 233 246 256 248 186 210 241 252 244 171 151 151 199 158 150 179 160 142 184 202 203 208 234 234 229 221 241 254 186 151 229 237 224 230 255 267 256 266 267 264 307 332 247 271 286 282 276 259 257 256 255 257 264 268 258 252 259 263 266 264 257 257 263
319 321 311 302 315 322 327 336 336 349 359 15 35 18 357 335 262 223 320 258 277 276 245 231 220 219 228 257 225 180 214 223 223 244 175 155 136 164 166 161 156 153 196 208 212 218 233 244 227 209 200 210 240 243 214 253 256 221 216 232 254 252 248 253 282 335 334 292 293 303 297 282 227 231 248 257 273 271 263 261 259 256 251 253 263 267 263 261
304 313 320 322 323 321 325 332 336 351 349 352 15 1 357 340 309 92 2 310 280 287 281 239 190 228 211 180 161 175 194 216 229 226 178 166 151 146 195 161 148 205 216 212 223 241 250 246 146 157 195 200 217 238 218 218 249 253 216 215 237 251 255 263 293 344 348 308 333 7 320 296 183 179 243 275 313 274 258 251 250 251 253 251 260 272 274 265
285 297 321 342 333 325 327 327 331 342 343 344 2 355 349 327 300 286 39 359 285 278 304 235 166 192 183 137 161 161 134 259 273 224 169 182 170 138 159 182 164 223 207 197 224 249 255 233 168 179 193 182 198 243 226 200 238 277 228 210 228 241 253 261 278 322 300 261 297 68 346 288 278 171 225 244 243 257 254 246 247 250 264 274 260 266 276 275
274 277 292 316 316 316 319 300 311 331 343 332 345 353 346 329 308 292 349 347 293 223 122 284 349 115 175 186 167 138 161 268 329 42 104 185 238 120 150 204 207 249 172 139 284 246 206 197 195 196 178 160 192 247 226 178 200 267 228 190 201 213 225 223 208 216 234 274 295 166 150 274 287 243 194 213 215 253 260 254 260 268 283 290 276 270 278 276
270 269 270 274 280 284 283 280 297 316 304 295 335 347 346 337 322 344 36 307 287 109 104 278 113 98 300 42 70 101 202 292 55 311 312 59 242 73 185 217 185 205 174 147 250 257 151 183 198 174 148 168 207 226 182 153 189 258 224 156 172 188 195 161 154 194 241 342 302 222 151 241 280 269 118 165 206 242 258 256 265 281 288 286 284 291 293 280
268 265 260 262 271 270 266 268 270 278 287 299 340 338 340 331 332 53 82 258 274 78 71 335 118 335 357 54 36 44 355 356 92 277 322 76 185 77 170 210 161 203 232 182 236 271 135 206 190 157 157 207 218 212 167 163 199 247 107 82 68 77 84 108 139 141 78 320 258 203 165 208 279 275 98 80 201 230 257 259 260 269 272 275 285 295 291 284
273 267 262 263 268 261 250 253 256 263 277 274 308 327 333 328 3 73 235 247 339 16 228 105 161 291 63 84 341 340 338 294 355 349 3 78 358 35 125 188 116 163 263 258 254 259 255 213 158 162 185 199 177 120 169 174 183 132 96 47 25 31 35 57 79 90 83 280 246 188 184 191 280 285 141 171 206 208 265 283 281 284 273 273 279 280 282 288
284 277 270 264 259 250 234 243 257 258 256 250 287 337 346 6 79 195 240 244 39 287 170 91 325 25 89 116 237 289 218 275 336 77 50 96 32 34 52 277 75 65 327 298 275 276 272 214 206 225 193 143 120 98 319 133 122 115 97 58 7 335 10 30 355 56 146 260 247 188 184 182 239 258 193 254 256 224 226 263 281 288 284 286 292 289 290 293
293 287 278 271 260 247 235 236 254 251 234 220 226 21 40 43 207 218 247 354 358 273 131 151 310 86 105 85 243 232 188 256 240 130 155 141 136 170 195 198 169 342 308 255 272 316 282 225 229 276 210 153 134 135 329 5 103 126 129 139 275 314 344 349 312 106 200 255 247 186 175 199 245 256 272 278 280 266 233 229 255 266 276 291 301 304 302 296
292 289 281 276 265 249 241 241 241 224 189 166 132 57 94 212 242 215 228 288 265 284 57 88 44 93 144 43 273 235 187 223 202 159 162 124 141 245 251 211 167 210 261 225 309 317 292 279 212 152 254 186 156 177 248 263 171 161 159 163 167 187 257 262 258 266 260 266 260 185 173 254 273 275 251 250 269 280 255 225 232 240 259 279 290 296 296 295
293 292 284 275 266 254 246 242 237 217 171 142 121 76 152 230 252 114 194 242 260 337 19 84 54 14 216 221 244 210 203 243 162 138 166 104 121 263 267 234 189 179 217 236 287 225 255 285 226 169 256 195 177 197 201 147 162 182 163 145 161 176 191 218 225 250 269 281 319 263 190 217 258 265 227 228 255 283 271 242 240 247 255 266 282 285 285 289
292 293 291 278 262 251 239 234 230 204 163 131 103 177 213 239 255 315 217 237 285 313 336 38 83 21 285 262 276 246 217 252 88 111 180 173 183 215 214 216 202 174 157 217 247 174 214 265 264 242 266 181 196 239 113 105 167 229 126 117 196 194 179 221 235 214 232 302 303 245 221 221 243 275 273 263 262 266 266 264 270 275 264 258 274 275 276 287
293 293 290 273 257 247 231 225 215 188 162 131 142 213 231 239 218 197 212 198 203 202 332 340 105 179 274 277 310 313 240 235 343 93 215 208 210 220 215 221 197 181 178 195 219 179 217 266 291 302 297 166 208 302 17 119 223 227 108 184 225 178 151 231 276 234 122 264 251 238 257 273 297 288 289 300 286 277 292 291 271 266 273 273 268 268 278 292
305 302 285 259 254 248 234 222 204 182 164 144 209 222 236 230 196 190 199 187 176 124 83 289 222 194 251 264 292 302 18 268 260 150 221 239 237 205 209 250 201 189 204 211 224 216 206 282 319 100 301 287 173 253 311 315 135 120 164 226 218 145 129 153 270 314 266 252 247 239 258 276 294 282 299 321 295 286 293 292 282 285 291 280 266 273 288 286
324 313 286 265 256 247 235 213 192 173 144 169 228 237 232 216 213 183 161 157 157 90 122 233 244 205 205 237 268 267 187 220 24 135 208 253 243 168 169 254 198 191 218 197 183 250 161 307 303 138 207 298 34 53 310 342 89 139 212 259 129 185 243 172 171 238 246 253 253 234 247 259 254 263 286 292 286 286 284 270 279 284 276 272 282 298 303 301
326 319 288 273 252 238 221 195 177 161 145 202 227 238 217 211 230 196 189 176 146 164 213 229 245 254 210 202 209 260 227 191 174 244 204 238 253 154 110 258 237 221 229 153 161 279 0 297 273 155 136 340 0 348 268 311 337 1 252 302 33 185 219 218 197 216 247 259 263 248 244 238 230 253 275 279 281 287 289 281 256 257 258 267 279 293 309 327
312 306 260 292 275 217 194 175 162 166 207 213 228 235 228 247 258 250 241 213 186 230 228 221 227 233 235 216 212 250 242 197 206 224 202 235 266 275 257 270 333 338 18 52 277 304 2 275 265 293 66 333 290 230 218 247 258 247 233 243 230 215 240 276 257 221 241 259 262 258 253 233 217 243 260 269 276 281 288 293 260 248 269 289 293 306 320 330
275 232 245 317 324 177 167 160 167 199 209 229 240 239 249 262 263 283 283 177 204 250 203 189 215 224 231 245 248 239 217 215 215 204 216 233 236 256 256 178 194 253 88 66 240 201 189 235 248 274 273 261 257 243 226 233 241 237 224 216 212 217 235 272 255 220 212 243 248 255 263 246 200 218 246 260 269 276 287 298 286 270 291 298 300 307 312 320
220 196 275 351 174 168 159 168 205 192 210 225 232 235 247 266 252 257 264 202 209 247 315 220 223 226 224 242 249 217 202 229 217 206 230 232 216 229 239 151 161 176 167 210 228 210 192 169 217 254 258 254 258 259 241 227 235 250 232 209 213 211 195 233 251 247 237 250 255 256 264 257 179 203 233 251 264 275 287 305 313 298 292 296 306 322 340 357
220 239 319 349 177 173 166 222 206 205 229 229 282 259 227 254 253 243 238 230 214 228 262 240 226 238 234 233 233 214 216 224 211 217 232 236 229 229 239 238 175 158 200 253 265 248 202 168 231 251 259 260 265 276 277 195 191 260 255 220 221 226 229 240 253 273 268 266 272 266 265 274 194 212 232 252 273 286 297 320 334 330 347 0 358 8 15 12
291 267 295 315 220 196 204 213 208 226 226 232 262 250 239 229 232 245 247 225 191 199 226 222 228 241 231 221 217 211 223 230 229 238 231 227 254 281 8 1 20 57 279 300 307 283 292 261 256 267 275 277 284 290 301 332 169 233 248 239 240 239 246 262 274 280 264 256 256 263 268 269 275 283 288 290 294 297 311 352 18 20 21 18 16 19 18 12
314 272 254 291 284 253 249 241 231 234 227 236 243 241 250 245 220 234 244 237 205 193 230 253 248 252 240 240 248 232 230 233 247 266 246 223 256 17 33 26 39 38 346 33 28 279 262 260 257 264 261 262 274 273 273 285 244 241 249 244 249 242 237 251 261 248 252 247 241 252 266 264 263 279 289 295 314 327 347 18 32 32 26 18 14 13 11 12
313 296 278 299 304 270 264 303 309 226 225 237 237 233 240 244 243 216 214 231 227 208 233 255 252 285 277 251 261 258 244 231 230 249 264 264 277 17 26 39 53 37 24 34 20 352 209 269 242 246 253 256 265 272 284 299 288 289 289 267 264 264 254 255 254 246 258 261 247 247 262 268 267 270 282 318 347 353 11 28 26 24 21 15 9 8 11 13
228 267 240 296 311 270 263 298 297 257 259 249 237 234 239 245 260 243 206 227 235 215 232 240 226 233 232 226 246 254 247 236 232 237 253 270 302 314 329 68 74 35 43 33 2 25 95 288 259 256 261 260 270 284 296 301 291 288 291 286 283 285 281 273 263 262 273 276 262 260 271 275 280 290 317 357 2 2 31 34 23 25 16 7 8 7 10 11
238 291 286 297 298 255 253 292 315 316 305 292 286 290 269 259 258 255 242 288 303 224 241 249 230 231 237 246 251 243 231 238 238 230 233 28 0 322 336 14 91 40 52 34 356 62 135 267 259 262 271 278 292 298 299 298 294 290 289 286 282 281 278 271 268 271 276 272 272 283 283 280 290 323 5 20 0 0 35 34 24 30 13 7 14 10 10 9
336 315 304 331 338 291 316 325 340 345 300 284 289 272 267 266 262 260 250 304 303 267 237 249 249 287 307 297 268 240 232 249 250 169 122 66 8 333 341 325 291 55 39 5 348 141 217 258 261 268 287 299 293 286 285 286 287 287 285 282 281 278 274 273 275 276 271 268 272 277 277 277 292 17 19 15 2 1 37 34 25 28 16 12 15 10 10 6
1 327 320 359 341 272 320 320 316 338 293 260 252 248 251 256 263 271 250 240 257 248 228 230 81 33 359 0 353 287 274 334 5 58 86 69 1 55 10 280 299 350 354 341 317 257 251 280 302 302 298 291 285 280 277 276 278 281 282 278 273 272 273 275 277 272 268 269 272 274 274 276 34 58 347 348 1 358 20 30 27 25 15 12 13 8 4 356
12 343 331 348 304 259 230 14 308 272 259 233 227 251 258 251 278 311 310 271 293 11 97 90 63 26 334 342 350 323 28 50 52 37 27 27 273 313 315 275 305 323 322 298 266 284 283 287 306 304 284 275 282 285 286 290 292 285 279 274 270 268 268 267 264 263 269 276 280 281 280 285 31 15 335 345 358 1 10 16 17 16 11 12 11 2 351 346
160 319 292 160 292 277 179 354 298 233 243 240 244 300 279 280 7 357 301 38 70 77 72 57 33 21 356 310 337 51 75 73 164 219 241 222 234 248 245 245 255 265 274 281 271 244 244 259 287 284 278 278 278 282 295 305 294 277 269 264 265 267 268 265 264 278 306 311 287 285 294 336 329 332 352 355 358 3 353 344 355 1 359 5 4 353 336 327